SCP
0 0 0 0 0 0 0 0 0 0 0 0 0 0 0 0 0 0 0 0 0 0 0 0 0 0 0 0 0 0 0 0 0 0 0 0 0 0 0 0 0 0 0
0 0 0 0 0 0 0 0 0 0 0 0 0 0 0 0 0 0 0 0 0 0 0 0 0 0 0 0 0 0 0 0 0 0 0 0 0 0 0 0 -0 -0 0
0 0 0 0 0 0 0 0 0 0 0 0 0 0 0 0 0 0 0 0 0 0 0 0 0 0 0 0 0 0 0 0 0 0 0 0 0 0 0 0 -0 0 0
0 -0 0 0 0 0 0 0 0 0 0 0 0 0 0 0 0 0 0 0 0 0 0 0 0 0 0 0 0 0 0 0 0 0 0 0 0 -0 -0 -0 -0 -0 -0
0 0 0 0 0 0 0 0 0 0 0 0 0 0 0 0 0 0 0 0 0 0 0 0 0 0 0 0 0 0 0 0 0 0 0 0 -0 -0 -0 -0 -0 -0 -0
0 0 0 -0 -0 0 0 0 0 0 0 0 0 0 0 0 0 0 0 0 0 0 0 0 0 0 0 0 0 0 0 0 0 0 0 -0 -0 -0 -0 -0 -0 -0 -0
0 0 0 0 0 0 0 0 0 0 0 0 0 0 0 0 0 0 0 0 0 0 0 0 0 0 0 0 0 0 0 0 0 0 0 0 0 0 0 0 0 0 0
0 0 0 0 0 0 0 0 0 0 0 0 0 0 0 0 0 0 0 0 0 0 0 0 0 0 0 0 0 0 0 0 0 0 0 0 0 0 0 0 0 0 0
0 0 0 0 0 0 0 0 0 0 0 0 0 0 0 0 0 0 0 0 0 0 0 0 0 0 0 0 0 0 0 0 0 0 0 0 0 0 0 0 0 0 0
-0 0 0 0 0 0 0 0 0 0 0 0 0 0 0 0 0 0 0 0 0 0 0 0 0 0 0 0 0 0 0 0 0 0 0 0 0 0 0 0 0 0 0
-0 -0 -0 -0 -0 0 0 0 0 0 0 0 0 0 0 0 0 0 0 0 0 0 0 0 0 0 0 0 0 0 0 0 0 0 0 0 0 0 0 0 0 0 0
0 -0 0 0 0 -0 0 0 0 0 0 0 0 0 0 0 0 0 0 0 0 0 0 0 0 0 0 0 0 0 0 0 0 0 0 0 0 0 0 0 0 0 0
-0 0 0 -0 0 0 0 0 0 0 0 0 0 0 0 0 0 0 0 0 0 0 0 0 0 0 0 0 0 0 0 0 0 0 0 0 0 0 0 0 0 0 0
-0 -0 -0 -0 -0 -0 0 0 0 0 0 0 0 0 0 0 0 0 0 0 0 0 0 0 0 0 0 0 0 0 0 0 0 0 0 0 0 0 0 0 0 0 0
-0 -0 -0 -0 -0 -0 0 0 0 0 0 0 0 0 0 0 0 0 0 0 0 0 0 0 0 0 0 0 0 0 0 0 0 0 0 0 0 0 0 0 0 0 0
-0 -0 -0 -0 -0 -0 -0 0 0 0 0 0 0 0 0 0 0 0 0 0 0 0 0 0 0 0 0 0 0 0 0 0 0 0 0 0 0 0 0 0 0 0 0
0 0 -0 -0 -0 -0 0 0 0 0 0 0 0 0 0 0 0 0 0 0 0 0 0 0 0 0 0 0 0 0 0 0 0 0 0 0 0 0 0 0 0 0 0
0 0 0 0 -0 -0 0 0 0 0 0 0 0 0 0 0 0 0 -0 0 0 0 0 0 0 0 0 0 0 0 0 0 0 0 0 0 0 0 0 0 0 0 0
0 0 0 0 0 0 0 0 0 0 0 0 0 0 0 0 0 0 -0 0 0 0 0 0 0 0 0 0 0 0 0 0 0 0 0 0 0 0 0 0 0 0 0
0 0 0 0 0 0 0 0 0 0 0 0 0 0 0 0 0 0 0 0 0 0 0 0 0 0 0 0 0 0 0 0 0 0 0 0 0 0 0 0 0 0 0
0 0 0 0 0 0 0 0 0 0 0 0 0 0 0 0 0 0 0 0 0 0 0 0 0 0 0 0 0 0 0 0 0 0 0 0 0 0 0 0 0 0 0
0 0 0 0 0 0 0 0 0 0 0 0 0 0 0 0 0 0 0 0 0 0 0 0 0 0 0 0 0 0 0 0 0 0 0 0 0 0 0 0 0 0 0
0 0 -0 0 0 0 0 0 0 0 0 0 0 0 0 0 0 0 0 0 0 0 0 0 0 0 0 0 0 0 0 0 0 0 0 0 0 0 0 0 0 0 0
0 -0 -0 -0 0 0 0 0 0 0 0 0 0 0 0 0 0 0 0 0 0 0 0 0 0 0 0 0 0 0 0 0 0 0 0 0 0 0 0 0 0 0 0
0 0 0 0 0 0 0 0 0 0 0 0 0 0 0 0 0 0 0 0 0 0 0 0 0 0 0 0 0 0 0 0 0 0 0 0 0 0 0 0 0 0 0
-0 -0 0 0 0 0 0 0 0 0 0 0 0 0 0 0 0 0 0 0 0 0 0 0 0 0 0 0 0 0 0 0 0 0 0 0 0 0 0 0 0 0 0
Wind_Speed_500mb
63 62 62 67 74 77 83 85 87 88 87 90 88 87 92 97 97 96 93 89 86 82 78 74 64 56 50 44 44 42 41 40 36 36 36 33 34 40 45 49 53 56 60
49 59 67 73 78 85 89 93 95 96 93 93 91 92 93 94 100 102 99 96 94 91 85 79 73 65 57 51 48 46 45 42 41 38 39 40 40 42 47 54 60 62 63
51 45 52 58 69 85 92 95 102 102 100 101 100 101 100 100 103 106 103 101 98 94 88 85 78 70 61 55 53 49 47 43 40 41 42 40 47 48 49 55 63 69 72
69 72 64 57 61 64 70 85 100 104 104 107 108 108 106 104 104 106 107 107 100 99 93 91 83 74 65 60 56 50 46 42 41 41 41 40 46 49 57 64 71 71 79
82 78 84 77 67 64 67 71 86 100 99 107 112 112 110 109 111 111 112 109 107 104 99 95 87 78 69 65 60 54 48 43 41 38 37 39 45 51 57 64 70 75 79
79 84 79 78 72 66 64 71 78 88 97 104 112 112 115 116 118 112 112 113 112 110 105 101 90 82 76 71 63 57 51 44 40 41 35 38 44 47 50 55 64 73 82
79 76 82 79 72 72 65 62 74 81 87 101 108 112 117 121 120 112 113 113 114 116 109 104 95 88 80 72 64 59 53 47 47 41 37 36 40 39 46 55 59 67 73
87 80 78 78 80 73 69 65 66 72 85 94 104 110 110 119 114 110 115 117 117 115 110 106 100 92 84 74 66 59 53 48 42 37 36 32 35 35 41 47 57 68 75
92 93 88 85 81 73 70 66 60 63 79 88 94 99 104 112 111 111 116 121 118 117 114 108 97 90 79 73 69 62 56 47 42 36 37 33 28 29 34 45 49 65 82
92 93 92 85 76 74 65 65 59 57 60 73 85 94 99 99 106 109 116 123 119 116 114 106 99 90 81 81 73 66 60 50 43 37 34 28 27 29 31 40 50 57 67
100 103 95 90 84 77 73 65 58 57 53 61 70 81 88 91 91 102 110 115 113 114 118 109 98 91 85 80 72 67 55 46 41 39 32 27 28 32 32 37 44 53 60
111 108 110 98 96 80 77 72 62 55 54 53 56 73 80 81 80 89 92 113 107 104 104 106 97 91 85 77 69 61 53 50 44 36 32 28 31 31 34 38 43 49 55
110 118 110 112 99 94 77 75 69 59 58 52 59 69 73 74 76 79 89 95 88 89 100 98 89 85 79 67 56 46 49 45 37 35 32 30 31 35 36 40 45 49 57
115 114 118 110 109 91 91 78 71 72 67 67 60 66 70 69 73 80 85 87 75 86 92 86 78 74 66 66 64 62 46 42 37 34 32 30 31 33 38 40 50 55 67
115 115 114 111 100 92 86 82 76 74 78 77 77 67 64 67 74 78 94 98 92 85 83 76 75 77 72 71 64 55 47 43 34 32 32 31 32 36 39 40 47 59 69
116 113 110 102 97 90 78 87 79 75 72 75 77 76 71 62 58 64 82 100 105 92 82 86 90 88 84 76 69 57 51 41 37 33 31 31 34 38 41 44 50 59 70
99 99 97 93 87 82 71 74 82 74 67 68 69 64 70 67 62 52 64 84 82 81 84 91 99 94 81 71 58 56 44 41 34 30 29 30 34 38 40 48 55 62 71
85 85 85 87 84 80 72 67 75 74 72 70 66 60 64 59 53 54 50 85 77 80 90 89 85 80 74 64 62 55 49 41 36 32 31 32 33 39 43 48 57 64 71
81 84 78 83 84 77 74 66 71 74 67 65 61 57 59 56 49 49 66 102 103 106 90 77 73 73 64 62 58 53 45 40 34 31 30 30 33 38 44 50 60 64 68
81 81 78 75 75 74 69 57 69 70 66 62 63 57 62 59 53 68 84 89 97 102 88 77 81 68 65 61 56 48 41 34 31 30 28 30 32 35 43 52 60 66 67
71 69 63 64 64 61 55 61 64 64 59 57 57 52 64 68 61 73 80 90 98 93 78 73 72 70 62 58 49 41 34 30 27 26 28 28 30 34 41 52 61 65 69
58 62 61 58 57 51 48 54 58 52 48 46 44 47 55 61 66 78 89 91 84 84 77 66 66 57 52 44 39 32 29 25 25 26 27 28 30 34 44 54 62 66 72
49 46 45 43 36 35 40 39 36 36 36 39 42 48 62 68 68 82 88 79 79 68 57 55 50 49 43 37 30 27 24 23 24 25 25 28 30 36 46 56 64 71 75
36 34 30 26 20 15 15 17 20 23 31 42 49 50 55 59 63 66 70 72 62 54 51 46 45 40 33 27 26 22 20 23 23 23 26 29 33 37 47 57 67 70 75
28 25 21 16 12 7 6 11 20 29 37 40 41 43 49 55 55 58 57 49 47 47 42 40 34 28 24 21 20 19 20 21 23 24 24 29 35 39 50 59 69 72 75
25 22 18 15 11 7 2 6 14 21 28 34 37 35 36 46 49 47 41 43 42 40 34 29 25 24 20 16 16 18 20 22 22 21 25 30 35 40 54 63 69 72 75
Wind_Direction_500mb
308 291 279 269 263 259 256 252 250 248 244 242 240 236 234 233 232 231 232 231 231 232 234 236 239 243 249 253 256 257 257 257 262 269 281 294 305 314 317 318 319 320 317
298 297 293 284 275 271 267 260 254 250 247 244 242 239 235 233 233 233 233 231 231 230 233 235 238 240 243 245 249 253 254 257 268 278 288 301 311 318 322 323 324 325 325
340 313 295 291 289 282 275 268 261 255 250 246 242 241 238 234 232 233 234 234 234 233 233 234 236 239 242 245 248 249 249 254 266 279 290 305 316 321 323 327 331 329 330
349 347 326 305 297 294 285 273 267 259 254 251 248 244 240 236 234 233 233 233 232 234 233 232 232 235 240 245 246 244 243 255 267 279 292 307 316 323 330 331 326 328 328
350 347 345 327 304 296 292 285 275 265 261 256 252 248 244 240 236 232 232 230 231 232 230 231 230 232 235 240 241 242 241 247 262 273 287 303 313 322 329 329 326 326 324
338 341 342 347 328 298 288 285 279 272 264 258 255 250 247 244 240 236 233 231 230 230 229 228 227 229 232 236 239 237 241 248 258 266 277 300 311 318 322 321 324 327 329
332 334 334 337 342 338 296 281 278 275 270 262 257 254 249 246 241 238 234 232 231 229 227 227 227 228 230 230 233 235 238 245 252 267 287 298 301 308 313 317 323 320 319
332 326 327 328 329 333 334 302 285 278 270 264 260 255 250 248 242 239 237 234 231 230 228 228 227 227 227 229 229 229 234 242 254 266 276 279 287 298 316 318 316 314 311
327 325 324 324 320 321 327 330 306 285 276 265 260 255 249 247 243 236 233 234 230 228 226 225 226 227 226 225 224 224 229 235 243 254 263 276 297 303 305 308 313 313 312
322 319 317 315 315 312 313 322 318 298 282 272 263 256 252 246 243 236 233 233 228 224 224 224 224 225 224 226 225 225 227 230 235 243 254 266 281 290 300 305 307 308 307
320 316 313 312 311 312 311 306 310 305 289 274 267 262 255 248 242 238 232 235 230 224 223 220 218 220 221 225 226 226 227 228 232 241 246 261 276 290 300 300 301 300 303
317 315 312 310 306 304 303 297 294 294 288 277 269 260 253 247 241 231 225 235 230 228 226 225 221 220 220 221 224 224 223 229 231 234 242 256 273 286 291 296 296 300 302
313 311 309 306 305 301 293 292 286 282 276 272 261 252 249 246 238 227 211 222 231 225 225 226 222 217 218 214 207 207 212 226 231 235 246 260 275 287 295 298 300 303 304
308 306 304 302 300 298 294 286 283 275 266 260 258 255 249 244 238 224 209 212 220 221 219 218 215 212 207 210 204 213 221 224 229 240 254 267 277 286 294 301 308 315 311
304 302 299 299 297 297 290 286 279 277 272 265 264 261 257 252 243 229 216 204 211 221 214 206 200 198 203 208 214 220 220 222 226 242 259 271 281 290 298 308 314 316 315
299 297 296 296 294 291 287 284 282 278 278 272 263 260 260 258 255 247 218 207 215 217 211 207 205 207 209 210 211 213 216 221 231 242 255 268 279 291 304 312 317 316 317
294 292 291 292 292 289 286 279 277 282 276 271 266 254 259 257 248 236 218 200 209 210 212 207 206 205 206 211 205 211 214 223 232 246 259 270 282 292 304 312 320 321 322
293 290 289 289 288 288 285 277 271 277 279 277 257 253 236 240 238 237 202 194 197 203 209 211 210 210 213 204 204 207 212 222 233 245 257 268 282 295 305 316 322 325 324
294 290 287 285 287 285 282 271 266 274 275 273 261 250 231 223 224 213 195 190 193 198 203 210 213 213 208 202 205 207 211 219 230 241 252 268 282 295 306 317 323 325 325
297 295 295 293 291 287 281 268 257 265 267 263 253 247 225 209 203 202 195 195 197 202 200 208 210 207 199 203 205 209 213 219 229 239 255 270 281 297 310 320 325 326 328
300 301 301 297 291 286 272 262 261 262 261 255 250 240 226 220 207 197 193 197 200 202 202 208 204 198 197 201 205 209 214 222 232 246 257 272 288 304 314 321 325 327 333
307 308 306 300 296 284 270 263 262 261 257 247 237 226 209 206 196 192 196 201 201 209 209 201 194 189 196 203 208 210 217 225 237 250 262 280 297 307 318 323 328 330 329
312 311 309 307 299 280 264 260 256 248 236 227 219 204 197 201 199 198 200 198 202 200 192 185 181 190 196 202 209 220 227 236 248 262 275 285 301 312 321 326 331 328 326
326 322 319 319 313 292 270 252 237 222 209 193 190 191 198 199 198 197 194 189 184 184 174 176 186 191 197 206 219 230 242 252 265 276 284 299 310 314 322 329 327 324 324
344 343 341 340 334 320 262 211 192 184 183 185 185 188 189 185 182 175 173 180 184 173 173 183 187 194 207 219 231 246 256 263 269 278 292 303 308 317 329 324 322 325 324
10 11 13 12 11 16 41 172 169 171 176 178 178 174 171 167 169 174 178 173 165 171 176 184 193 203 214 230 250 260 261 264 273 287 291 299 314 317 319 318 321 323 324
Wind_Speed_850mb
63 62 62 67 74 77 83 85 87 88 87 90 88 87 92 97 97 96 93 89 86 82 78 74 64 56 50 44 44 42 41 40 36 36 36 33 34 40 45 49 53 56 60
49 59 67 73 78 85 89 93 95 96 93 93 91 92 93 94 100 102 99 96 94 91 85 79 73 65 57 51 48 46 45 42 41 38 39 40 40 42 47 54 60 62 63
51 45 52 58 69 85 92 95 102 102 100 101 100 101 100 100 103 106 103 101 98 94 88 85 78 70 61 55 53 49 47 43 40 41 42 40 47 48 49 55 63 69 72
69 72 64 57 61 64 70 85 100 104 104 107 108 108 106 104 104 106 107 107 100 99 93 91 83 74 65 60 56 50 46 42 41 41 41 40 46 49 57 64 71 71 79
82 78 84 77 67 64 67 71 86 100 99 107 112 112 110 109 111 111 112 109 107 104 99 95 87 78 69 65 60 54 48 43 41 38 37 39 45 51 57 64 70 75 79
79 84 79 78 72 66 64 71 78 88 97 104 112 112 115 116 118 112 112 113 112 110 105 101 90 82 76 71 63 57 51 44 40 41 35 38 44 47 50 55 64 73 82
79 76 82 79 72 72 65 62 74 81 87 101 108 112 117 121 120 112 113 113 114 116 109 104 95 88 80 72 64 59 53 47 47 41 37 36 40 39 46 55 59 67 73
87 80 78 78 80 73 69 65 66 72 85 94 104 110 110 119 114 110 115 117 117 115 110 106 100 92 84 74 66 59 53 48 42 37 36 32 35 35 41 47 57 68 75
92 93 88 85 81 73 70 66 60 63 79 88 94 99 104 112 111 111 116 121 118 117 114 108 97 90 79 73 69 62 56 47 42 36 37 33 28 29 34 45 49 65 82
92 93 92 85 76 74 65 65 59 57 60 73 85 94 99 99 106 109 116 123 119 116 114 106 99 90 81 81 73 66 60 50 43 37 34 28 27 29 31 40 50 57 67
100 103 95 90 84 77 73 65 58 57 53 61 70 81 88 91 91 102 110 115 113 114 118 109 98 91 85 80 72 67 55 46 41 39 32 27 28 32 32 37 44 53 60
111 108 110 98 96 80 77 72 62 55 54 53 56 73 80 81 80 89 92 113 107 104 104 106 97 91 85 77 69 61 53 50 44 36 32 28 31 31 34 38 43 49 55
110 118 110 112 99 94 77 75 69 59 58 52 59 69 73 74 76 79 89 95 88 89 100 98 89 85 79 67 56 46 49 45 37 35 32 30 31 35 36 40 45 49 57
115 114 118 110 109 91 91 78 71 72 67 67 60 66 70 69 73 80 85 87 75 86 92 86 78 74 66 66 64 62 46 42 37 34 32 30 31 33 38 40 50 55 67
115 115 114 111 100 92 86 82 76 74 78 77 77 67 64 67 74 78 94 98 92 85 83 76 75 77 72 71 64 55 47 43 34 32 32 31 32 36 39 40 47 59 69
116 113 110 102 97 90 78 87 79 75 72 75 77 76 71 62 58 64 82 100 105 92 82 86 90 88 84 76 69 57 51 41 37 33 31 31 34 38 41 44 50 59 70
99 99 97 93 87 82 71 74 82 74 67 68 69 64 70 67 62 52 64 84 82 81 84 91 99 94 81 71 58 56 44 41 34 30 29 30 34 38 40 48 55 62 71
85 85 85 87 84 80 72 67 75 74 72 70 66 60 64 59 53 54 50 85 77 80 90 89 85 80 74 64 62 55 49 41 36 32 31 32 33 39 43 48 57 64 71
81 84 78 83 84 77 74 66 71 74 67 65 61 57 59 56 49 49 66 102 103 106 90 77 73 73 64 62 58 53 45 40 34 31 30 30 33 38 44 50 60 64 68
81 81 78 75 75 74 69 57 69 70 66 62 63 57 62 59 53 68 84 89 97 102 88 77 81 68 65 61 56 48 41 34 31 30 28 30 32 35 43 52 60 66 67
71 69 63 64 64 61 55 61 64 64 59 57 57 52 64 68 61 73 80 90 98 93 78 73 72 70 62 58 49 41 34 30 27 26 28 28 30 34 41 52 61 65 69
58 62 61 58 57 51 48 54 58 52 48 46 44 47 55 61 66 78 89 91 84 84 77 66 66 57 52 44 39 32 29 25 25 26 27 28 30 34 44 54 62 66 72
49 46 45 43 36 35 40 39 36 36 36 39 42 48 62 68 68 82 88 79 79 68 57 55 50 49 43 37 30 27 24 23 24 25 25 28 30 36 46 56 64 71 75
36 34 30 26 20 15 15 17 20 23 31 42 49 50 55 59 63 66 70 72 62 54 51 46 45 40 33 27 26 22 20 23 23 23 26 29 33 37 47 57 67 70 75
28 25 21 16 12 7 6 11 20 29 37 40 41 43 49 55 55 58 57 49 47 47 42 40 34 28 24 21 20 19 20 21 23 24 24 29 35 39 50 59 69 72 75
25 22 18 15 11 7 2 6 14 21 28 34 37 35 36 46 49 47 41 43 42 40 34 29 25 24 20 16 16 18 20 22 22 21 25 30 35 40 54 63 69 72 75
Wind_Direction_850mb
308 291 279 269 263 259 256 252 250 248 244 242 240 236 234 233 232 231 232 231 231 232 234 236 239 243 249 253 256 257 257 257 262 269 281 294 305 314 317 318 319 320 317
298 297 293 284 275 271 267 260 254 250 247 244 242 239 235 233 233 233 233 231 231 230 233 235 238 240 243 245 249 253 254 257 268 278 288 301 311 318 322 323 324 325 325
340 313 295 291 289 282 275 268 261 255 250 246 242 241 238 234 232 233 234 234 234 233 233 234 236 239 242 245 248 249 249 254 266 279 290 305 316 321 323 327 331 329 330
349 347 326 305 297 294 285 273 267 259 254 251 248 244 240 236 234 233 233 233 232 234 233 232 232 235 240 245 246 244 243 255 267 279 292 307 316 323 330 331 326 328 328
350 347 345 327 304 296 292 285 275 265 261 256 252 248 244 240 236 232 232 230 231 232 230 231 230 232 235 240 241 242 241 247 262 273 287 303 313 322 329 329 326 326 324
338 341 342 347 328 298 288 285 279 272 264 258 255 250 247 244 240 236 233 231 230 230 229 228 227 229 232 236 239 237 241 248 258 266 277 300 311 318 322 321 324 327 329
332 334 334 337 342 338 296 281 278 275 270 262 257 254 249 246 241 238 234 232 231 229 227 227 227 228 230 230 233 235 238 245 252 267 287 298 301 308 313 317 323 320 319
332 326 327 328 329 333 334 302 285 278 270 264 260 255 250 248 242 239 237 234 231 230 228 228 227 227 227 229 229 229 234 242 254 266 276 279 287 298 316 318 316 314 311
327 325 324 324 320 321 327 330 306 285 276 265 260 255 249 247 243 236 233 234 230 228 226 225 226 227 226 225 224 224 229 235 243 254 263 276 297 303 305 308 313 313 312
322 319 317 315 315 312 313 322 318 298 282 272 263 256 252 246 243 236 233 233 228 224 224 224 224 225 224 226 225 225 227 230 235 243 254 266 281 290 300 305 307 308 307
320 316 313 312 311 312 311 306 310 305 289 274 267 262 255 248 242 238 232 235 230 224 223 220 218 220 221 225 226 226 227 228 232 241 246 261 276 290 300 300 301 300 303
317 315 312 310 306 304 303 297 294 294 288 277 269 260 253 247 241 231 225 235 230 228 226 225 221 220 220 221 224 224 223 229 231 234 242 256 273 286 291 296 296 300 302
313 311 309 306 305 301 293 292 286 282 276 272 261 252 249 246 238 227 211 222 231 225 225 226 222 217 218 214 207 207 212 226 231 235 246 260 275 287 295 298 300 303 304
308 306 304 302 300 298 294 286 283 275 266 260 258 255 249 244 238 224 209 212 220 221 219 218 215 212 207 210 204 213 221 224 229 240 254 267 277 286 294 301 308 315 311
304 302 299 299 297 297 290 286 279 277 272 265 264 261 257 252 243 229 216 204 211 221 214 206 200 198 203 208 214 220 220 222 226 242 259 271 281 290 298 308 314 316 315
299 297 296 296 294 291 287 284 282 278 278 272 263 260 260 258 255 247 218 207 215 217 211 207 205 207 209 210 211 213 216 221 231 242 255 268 279 291 304 312 317 316 317
294 292 291 292 292 289 286 279 277 282 276 271 266 254 259 257 248 236 218 200 209 210 212 207 206 205 206 211 205 211 214 223 232 246 259 270 282 292 304 312 320 321 322
293 290 289 289 288 288 285 277 271 277 279 277 257 253 236 240 238 237 202 194 197 203 209 211 210 210 213 204 204 207 212 222 233 245 257 268 282 295 305 316 322 325 324
294 290 287 285 287 285 282 271 266 274 275 273 261 250 231 223 224 213 195 190 193 198 203 210 213 213 208 202 205 207 211 219 230 241 252 268 282 295 306 317 323 325 325
297 295 295 293 291 287 281 268 257 265 267 263 253 247 225 209 203 202 195 195 197 202 200 208 210 207 199 203 205 209 213 219 229 239 255 270 281 297 310 320 325 326 328
300 301 301 297 291 286 272 262 261 262 261 255 250 240 226 220 207 197 193 197 200 202 202 208 204 198 197 201 205 209 214 222 232 246 257 272 288 304 314 321 325 327 333
307 308 306 300 296 284 270 263 262 261 257 247 237 226 209 206 196 192 196 201 201 209 209 201 194 189 196 203 208 210 217 225 237 250 262 280 297 307 318 323 328 330 329
312 311 309 307 299 280 264 260 256 248 236 227 219 204 197 201 199 198 200 198 202 200 192 185 181 190 196 202 209 220 227 236 248 262 275 285 301 312 321 326 331 328 326
326 322 319 319 313 292 270 252 237 222 209 193 190 191 198 199 198 197 194 189 184 184 174 176 186 191 197 206 219 230 242 252 265 276 284 299 310 314 322 329 327 324 324
344 343 341 340 334 320 262 211 192 184 183 185 185 188 189 185 182 175 173 180 184 173 173 183 187 194 207 219 231 246 256 263 269 278 292 303 308 317 329 324 322 325 324
10 11 13 12 11 16 41 172 169 171 176 178 178 174 171 167 169 174 178 173 165 171 176 184 193 203 214 230 250 260 261 264 273 287 291 299 314 317 319 318 321 323 324